sat.trackr.live / text

‹ back to catalog

STARLINK-36600

NORAD 67623 · 2026-020G

PAYLOAD ACTIVE UNKNOWN

§ Identity

Operator
Country
US
Launch date
2026-01-30
Launch site
AFETR
Launch vehicle
Mass (kg)
RCS (m²)

Purposes: comms

External: N2YO · Heavens-Above · Gunter

§ Orbital elements

Epoch: 2026-05-25T04:54:36.112032Z

Period
94.27 min
Inclination
43.0009°
Eccentricity
0.0001035
Mean motion
15.27599005 rev/d
Perigee alt
482.3 km
Apogee alt
483.7 km
Semi-major
6,861.1 km
B*
9.8029e-4
RAAN
67.8389°
Arg perigee
268.1958°
Mean anomaly
91.8775°
Rev number
1,781

§ Raw data

STARLINK-366001 67623U 26020G   26145.20458463  .00026827  00000+0  98029-3 0  99992 67623  43.0009  67.8389 0001035 268.1958  91.8775 15.27599005 17818

JSON: /api/v1/satellites/67623 · /tle

For live sub-satellite position, see the globe view (requires WebGL).

§ Visibility from observer

Set your observer location to see the next 7 days of passes ≥ 10°. The values pass through the URL so the page stays shareable.

No JS? Fill the form by hand. The geolocation button needs JavaScript.